DB0TGO-13 Weather Reports


Display with metric or nautical units.
time (UTC)temp
F
wind
direction
speed
MPH
gust
MPH
rain 1hr
in
rain 24hr
in
rain mn
in
humidity
%
barometer
mb
20260901084510 62 260 7.0 0.0 0.00 0.00 0.00 80 1010.8
20260901083009 62 260 7.0 0.0 0.00 0.00 0.00 80 1010.8
20260901081509 62 260 7.0 0.0 0.00 0.00 0.00 81 1010.7
20260901080009 62 240 8.0 0.0 0.00 0.00 0.00 81 1010.7
20260901074509 61 240 8.0 0.0 0.00 0.00 0.00 83 1010.4
20260901073009 61 250 7.0 0.0 0.00 0.00 0.00 83 1010.4
20260901071509 61 250 7.0 0.0 0.00 0.00 0.00 83 1010.1
20260901070010 61 250 9.0 0.0 0.00 0.00 0.00 83 1010.1
20260901064509 61 250 9.0 0.0 0.00 0.00 0.00 84 1009.8
20260901063009 61 260 8.0 0.0 0.00 0.00 0.00 84 1009.8
20260901061510 60 260 8.0 0.0 0.00 0.00 0.00 86 1009.6
20260901060010 60 250 7.0 0.0 0.00 0.00 0.00 86 1009.6
20260901054509 60 260 6.0 0.0 0.00 0.00 0.00 89 1009.2
20260901053010 60 260 6.0 0.0 0.00 0.00 0.00 89 1009.2
20260901051509 59 260 7.0 0.0 0.00 0.00 0.00 89 1008.9
20260901050010 59 260 7.0 0.0 0.00 0.00 0.00 89 1008.9
20260901044511 59 240 6.0 0.0 0.00 0.00 0.00 91 1008.6
20260901043009 59 240 6.0 0.0 0.00 0.00 0.00 91 1008.6
20260901041510 59 250 6.0 0.0 0.00 0.00 0.00 90 1008.4
20260901040010 59 250 6.0 0.0 0.00 0.00 0.00 90 1008.4
20260901034510 59 230 7.0 0.0 0.00 0.00 0.00 90 1008.3
20260901033010 59 230 7.0 0.0 0.00 0.00 0.00 90 1008.3
20260901031509 59 230 8.0 0.0 0.00 0.00 0.00 90 1008.1
20260901030008 59 230 8.0 0.0 0.00 0.00 0.00 90 1008.1
20260831204510 62 230 5.0 0.0 0.00 0.00 0.00 78 1006.6
20260831203009 62 210 6.0 0.0 0.00 0.00 0.00 78 1006.6
20260831201509 63 240 4.0 0.0 0.00 0.00 0.00 76 1006.3
20260831200009 63 240 4.0 0.0 0.00 0.00 0.00 76 1006.3
20260831194509 62 240 4.0 0.0 0.00 0.00 0.00 77 1005.8
20260831193010 62 250 5.0 0.0 0.00 0.00 0.00 77 1005.8
20260831191509 64 250 5.0 0.0 0.00 0.00 0.00 70 1006.0
20260831190010 64 250 11.0 0.0 0.00 0.00 0.00 70 1006.0
20260831184509 67 250 11.0 0.0 0.00 0.00 0.00 70 1006.0
20260831183009 67 250 7.0 0.0 0.00 0.00 0.00 70 1006.0
20260831181509 67 250 7.0 0.0 0.00 0.00 0.00 71 1005.6
20260831180009 67 270 8.0 0.0 0.00 0.00 0.00 71 1005.6
20260831174509 75 270 8.0 0.0 0.00 0.00 0.00 44 1004.6
20260831173010 75 220 10.0 0.0 0.00 0.00 0.00 44 1004.6
20260831171510 76 220 10.0 0.0 0.00 0.00 0.00 44 1004.5
20260831170009 76 220 11.0 0.0 0.00 0.00 0.00 44 1004.5
20260831164509 76 240 10.0 0.0 0.00 0.00 0.00 44 1004.5
20260831163009 76 240 10.0 0.0 0.00 0.00 0.00 44 1004.5
20260831161511 77 240 10.0 0.0 0.00 0.00 0.00 45 1004.7
20260831160010 77 230 12.0 0.0 0.00 0.00 0.00 45 1004.7
20260831154509 77 240 13.0 0.0 0.00 0.00 0.00 46 1004.6
20260831153009 77 240 13.0 0.0 0.00 0.00 0.00 46 1004.6
20260831151509 77 240 13.0 0.0 0.00 0.00 0.00 49 1004.7
20260831150010 77 230 11.0 0.0 0.00 0.00 0.00 49 1004.7
20260831144510 76 230 11.0 0.0 0.00 0.00 0.00 50 1004.8
20260831143009 76 230 11.0 0.0 0.00 0.00 0.00 50 1004.8
20260831141509 77 230 11.0 0.0 0.00 0.00 0.00 48 1005.0
20260831140009 77 230 13.0 0.0 0.00 0.00 0.00 48 1005.0
20260831134510 76 230 13.0 0.0 0.00 0.00 0.00 52 1005.1
20260831133009 76 210 12.0 0.0 0.00 0.00 0.00 52 1005.1
20260831131509 75 220 8.0 0.0 0.00 0.00 0.00 54 1005.2
20260831130009 75 220 8.0 0.0 0.00 0.00 0.00 54 1005.2
20260831124509 74 220 8.0 0.0 0.00 0.00 0.00 58 1005.4
20260831123009 74 220 10.0 0.0 0.00 0.00 0.00 58 1005.4
20260831121509 74 220 10.0 0.0 0.00 0.00 0.00 59 1005.5
20260831120009 74 210 10.0 0.0 0.00 0.00 0.00 59 1005.5
20260831114510 73 210 10.0 0.0 0.00 0.00 0.00 62 1005.6
20260831113010 73 210 7.0 0.0 0.00 0.00 0.00 62 1005.6
20260831111510 71 220 8.0 0.0 0.00 0.00 0.00 66 1005.7
20260831110009 71 220 8.0 0.0 0.00 0.00 0.00 66 1005.7
20260831104509 69 220 8.0 0.0 0.00 0.00 0.00 73 1005.9
20260831103010 69 230 8.0 0.0 0.00 0.00 0.00 73 1005.9
20260831101509 66 230 6.0 0.0 0.00 0.00 0.00 80 1006.0
20260831100009 66 230 6.0 0.0 0.00 0.00 0.00 80 1006.0
20260831094509 61 210 4.0 0.0 0.00 0.00 0.00 89 1006.3
20260831093010 61 210 4.0 0.0 0.00 0.00 0.00 89 1006.3
20260831091510 60 180 5.0 0.0 0.00 0.00 0.00 90 1006.2
20260831090009 60 180 5.0 0.0 0.00 0.00 0.00 90 1006.2